Theta_e
328 324 332 323 305 304 299 303 306 309 310 313 318 316 313 314 309 302 324 335 337 336 340 343 346 347 347 347 346 346 345 342 339 338 337 336 336 336 335 335 335 334 334 334 334 334 334 333 333
326 327 324 314 302 296 297 303 306 309 312 319 319 317 313 310 318 324 327 336 336 336 339 341 344 347 348 347 346 345 346 344 341 338 337 336 336 336 336 335 335 335 335 334 334 334 334 333 333
323 326 314 307 302 297 297 303 307 312 315 315 317 318 314 314 320 323 332 335 335 335 339 340 344 346 347 347 346 345 345 345 342 340 337 336 337 336 335 335 336 336 335 335 334 333 332 333 333
318 313 313 301 300 305 303 307 313 313 313 319 316 310 316 321 320 328 334 334 333 334 338 340 344 346 346 345 345 344 343 341 339 336 336 333 335 337 335 337 336 334 335 334 332 332 332 333 334
316 310 301 298 302 306 307 312 311 312 313 315 316 311 313 321 326 333 332 333 331 333 336 339 342 344 344 344 343 342 340 338 336 335 333 332 332 333 333 333 332 331 332 333 333 333 334 334 335
310 307 297 296 302 306 309 313 314 313 314 315 313 314 314 320 328 329 330 331 333 332 336 338 336 339 340 340 340 339 338 336 335 333 333 333 333 333 333 333 333 333 333 333 333 334 334 335 336
307 303 298 299 301 302 309 317 312 312 312 315 319 313 315 313 320 325 328 331 332 333 334 335 336 334 333 335 336 337 336 336 335 335 334 334 334 334 333 333 331 331 332 333 334 335 335 335 336
312 308 300 300 300 299 309 313 317 313 312 321 321 311 312 315 320 324 325 327 329 330 332 333 331 332 330 330 329 331 333 334 334 333 332 330 330 331 330 328 331 332 333 333 334 335 335 335 335
317 303 298 299 302 301 310 310 317 317 317 318 320 318 320 319 323 325 323 322 324 327 329 331 329 328 328 328 325 327 329 330 329 328 326 324 325 326 326 326 329 332 332 331 333 335 335 333 331
309 302 301 306 307 305 310 309 313 312 314 316 315 320 321 317 321 323 321 318 320 322 325 330 327 327 328 332 329 327 328 326 326 326 325 325 326 327 328 324 325 328 328 330 332 335 332 328 328
309 302 308 308 310 311 310 309 310 311 310 315 314 317 316 315 319 322 322 321 320 322 326 329 327 324 326 328 327 327 328 326 327 326 328 328 326 324 324 324 325 323 323 327 331 331 331 330 328
304 308 308 310 312 310 308 309 309 310 313 318 320 318 315 314 318 320 321 321 322 323 326 326 324 324 326 327 328 328 327 327 326 327 328 326 324 325 325 325 327 329 332 331 330 327 326 324 324
305 306 310 311 312 310 312 308 307 308 310 321 320 316 314 314 320 321 323 324 325 324 325 325 324 323 328 326 326 326 327 326 326 326 329 326 326 326 330 331 332 332 331 328 321 320 318 316 316
308 307 306 310 310 311 308 309 308 309 320 319 318 315 314 315 320 320 321 322 325 326 327 327 327 324 328 328 327 327 327 327 327 327 327 329 329 331 332 329 327 326 321 317 316 315 313 312 311
307 301 305 307 309 309 310 304 305 311 321 317 316 316 315 315 319 320 322 322 323 325 327 326 327 325 326 325 325 325 326 327 329 331 331 328 332 331 325 321 319 315 313 313 312 312 311 309 308
301 299 294 303 309 310 308 298 308 315 318 316 315 315 314 314 317 319 321 323 324 325 325 326 329 324 324 321 322 327 328 330 326 324 322 323 323 322 319 316 312 310 309 308 308 308 307 305 303
296 289 292 296 307 307 305 300 307 315 316 315 315 315 315 315 315 317 321 323 324 325 325 326 324 322 321 321 327 327 323 321 320 319 317 316 316 314 311 309 308 306 304 303 305 304 304 300 299
288 289 292 292 300 305 302 302 305 310 315 314 315 315 316 316 316 317 319 322 324 324 325 325 321 321 321 326 323 321 317 316 314 310 309 309 309 309 307 305 304 303 301 300 300 301 301 297 297
293 292 291 295 299 303 301 302 305 309 313 313 314 316 317 318 320 320 319 319 318 321 321 320 320 321 325 323 319 318 312 308 306 306 305 304 305 305 303 302 301 299 297 296 297 299 298 296 296
292 290 291 294 297 301 302 300 305 308 310 314 314 316 316 319 321 321 320 319 317 318 319 320 321 323 327 327 324 317 308 304 303 303 301 301 301 301 300 298 297 297 296 295 295 295 295 295 295
290 288 291 290 296 302 300 297 300 306 309 314 315 318 318 317 319 321 320 319 318 317 318 320 322 325 328 322 313 307 304 303 301 300 298 298 298 298 297 296 296 295 295 293 292 293 294 290 293
287 293 292 291 291 290 300 288 297 303 304 310 313 314 316 317 318 321 320 319 319 319 321 322 324 325 322 318 311 308 306 301 300 298 297 297 297 295 295 295 294 294 293 292 292 292 292 291 289
291 296 293 291 289 291 295 290 296 302 300 305 312 313 315 317 317 319 315 310 310 313 312 312 315 318 319 317 314 307 301 298 297 296 295 294 294 293 293 293 292 292 291 291 290 289 288 288 287
298 294 293 289 287 283 292 291 293 297 301 303 311 314 315 317 316 311 309 308 305 304 305 306 309 309 314 310 307 304 299 296 295 295 293 293 291 290 290 291 291 292 291 290 289 288 287 286 286
294 289 282 281 282 282 290 289 293 301 304 304 308 313 316 316 309 306 306 305 303 302 303 303 304 301 303 304 303 301 298 297 295 294 292 291 290 289 289 290 291 289 290 289 288 287 285 285 283
292 288 282 276 280 283 291 284 292 299 304 304 311 314 316 310 309 307 306 304 302 301 298 297 297 296 297 298 298 299 298 296 294 294 292 291 290 291 291 290 290 288 287 287 286 286 285 283 282
289 289 293 286 284 283 285 289 297 300 304 306 309 311 307 306 305 304 302 301 300 299 299 298 296 295 297 298 297 297 295 294 292 291 291 291 290 290 290 288 287 286 286 285 284 283 283 283 282
295 296 287 286 279 278 285 286 289 294 299 301 303 302 302 301 298 298 298 297 295 296 297 298 298 297 295 295 293 292 291 291 291 291 290 290 289 288 287 286 285 285 284 284 283 283 283 282 281
292 290 291 291 287 282 281 284 289 291 300 300 300 298 299 298 298 297 296 295 294 294 294 293 292 291 291 292 292 291 292 292 292 291 289 287 286 285 285 285 284 284 283 283 282 282 282 280 280
291 291 292 284 283 284 284 286 292 292 299 301 298 297 297 298 297 296 295 293 292 292 292 292 291 291 292 292 293 292 292 291 289 287 286 285 284 285 285 285 284 284 283 282 282 281 280 279 279
Wind_Speed
7 5 2 3 4 4 4 7 1 1 2 3 2 6 8 4 4 4 3 10 15 12 10 10 13 14 13 11 13 15 17 17 16 15 14 13 13 13 12 12 11 11 10 10 10 9 9 9 9
5 3 5 2 4 2 5 6 6 5 5 11 7 5 5 2 3 8 8 13 15 12 9 8 11 13 12 13 12 15 17 16 16 15 14 13 12 11 12 11 10 10 9 8 8 8 8 8 8
4 1 3 3 3 6 5 4 7 2 9 4 5 5 5 5 5 8 10 13 15 10 8 7 13 14 14 13 12 16 15 15 15 14 13 11 10 10 10 8 9 8 7 6 7 7 7 7 8
3 4 2 2 8 5 6 6 3 2 1 5 6 8 4 3 8 9 15 15 14 10 7 8 15 17 17 16 17 17 16 15 13 13 12 11 11 10 9 8 8 7 7 6 6 6 6 6 7
3 1 1 3 7 4 4 5 2 5 4 4 2 5 3 2 12 18 15 13 14 10 7 7 15 17 17 16 15 15 14 14 12 12 11 11 10 10 8 7 7 6 5 5 5 5 5 6 6
3 1 2 4 8 3 4 6 4 3 3 5 6 7 2 5 18 13 13 13 13 12 7 8 11 12 14 15 14 13 13 13 12 11 11 11 10 9 7 6 5 4 3 3 3 4 5 6 7
1 0 5 4 7 4 4 2 2 1 4 5 10 7 2 4 10 14 13 12 12 11 8 7 8 9 10 11 12 12 11 11 11 10 9 8 7 7 6 4 3 1 1 3 4 5 6 7 8
3 1 4 5 7 6 5 2 3 1 5 1 3 8 9 9 13 15 13 12 11 10 9 8 7 6 6 6 9 10 11 10 9 9 8 7 6 5 4 3 2 2 2 3 5 6 7 8 8
2 5 10 13 7 5 4 6 1 2 3 4 3 7 10 16 18 16 13 9 9 8 9 8 7 6 6 6 6 8 10 9 8 6 7 5 2 3 4 5 5 5 4 5 6 6 7 8 8
7 6 16 3 7 8 6 4 6 7 2 4 2 4 22 18 19 18 15 13 12 11 9 9 8 7 6 6 7 5 5 4 4 4 4 3 3 4 4 4 6 6 6 6 8 8 7 5 3
8 14 7 11 11 8 8 3 3 4 4 10 9 23 22 18 17 16 14 14 11 13 9 9 9 7 7 5 4 2 3 3 2 4 4 2 2 2 2 2 2 2 2 1 2 1 2 4 4
6 10 18 11 6 8 7 4 4 5 10 9 15 29 23 19 18 18 16 15 15 13 11 10 8 9 6 5 4 4 3 3 3 3 3 2 1 1 1 0 1 1 0 1 3 2 4 6 6
12 11 13 16 8 16 12 10 6 6 7 10 16 20 22 17 15 13 14 13 13 14 11 10 8 9 6 7 4 4 4 3 3 3 3 2 2 1 1 1 3 3 3 4 4 4 4 5 5
4 17 14 14 17 12 21 13 5 6 9 12 20 20 19 18 17 13 14 15 15 14 13 10 8 8 10 6 6 4 4 4 3 2 3 3 3 2 3 4 4 5 4 4 3 4 4 4 4
3 4 6 19 17 11 12 16 12 6 14 16 18 15 16 13 16 17 16 16 14 11 13 9 7 7 7 8 6 4 4 4 3 2 4 5 5 6 5 4 5 4 3 4 5 5 5 4 4
4 4 5 6 15 14 6 17 20 9 12 15 15 14 13 13 18 15 12 13 11 8 9 7 6 7 6 8 5 4 3 5 6 5 5 7 7 7 6 5 4 4 4 4 4 3 4 4 5
4 3 8 7 16 11 16 5 18 15 13 15 15 16 13 13 12 13 14 15 14 12 12 10 7 8 8 7 5 7 8 7 6 5 6 7 8 7 6 4 4 5 4 4 4 5 4 4 5
6 5 6 10 10 25 25 16 9 14 15 14 15 16 16 16 15 15 15 14 15 13 12 10 7 9 8 7 8 7 8 7 6 6 6 7 6 7 6 5 6 5 4 5 4 4 4 2 3
3 4 8 10 10 24 26 23 10 20 17 14 14 15 16 16 13 16 15 14 13 12 12 12 11 10 8 8 7 5 5 5 5 6 8 7 6 6 6 5 5 4 6 4 5 2 5 8 6
6 7 13 11 9 24 24 30 17 7 15 18 18 18 15 14 14 16 16 15 15 14 14 12 12 10 9 8 5 6 6 5 6 6 7 7 7 6 7 5 5 5 5 7 7 6 2 4 6
6 4 4 7 4 21 15 32 22 7 4 10 13 17 18 18 18 15 14 15 12 13 13 12 11 11 8 11 10 9 9 6 4 5 5 5 7 7 6 6 5 5 4 5 4 4 4 2 4
8 11 7 7 5 6 24 8 27 18 11 14 13 12 15 15 10 13 12 12 13 11 9 8 8 8 9 12 12 14 6 7 3 4 5 5 7 7 6 6 6 6 4 6 5 5 4 3 3
6 10 4 4 11 5 12 5 11 23 13 11 16 16 15 16 14 10 11 12 9 10 9 7 8 8 9 10 11 10 10 9 7 6 8 7 6 6 6 6 6 6 5 6 6 5 6 5 3
13 4 1 1 1 4 8 3 6 25 25 15 15 17 16 14 14 12 10 13 10 9 10 8 10 8 8 9 10 13 16 13 10 7 6 5 4 4 5 6 5 5 6 6 6 5 7 5 5
7 7 3 4 3 2 4 5 3 23 21 17 15 16 17 16 18 17 13 12 10 9 10 9 9 9 8 11 11 12 13 13 12 9 7 7 4 3 4 5 5 4 6 6 5 6 6 5 5
10 7 2 4 1 2 7 5 2 4 7 11 11 14 17 13 12 16 17 12 11 9 9 11 10 11 9 12 11 10 11 8 6 6 6 5 4 4 5 6 6 6 5 6 5 5 5 5 5
4 4 5 3 2 0 2 2 2 3 7 9 12 16 16 14 13 13 12 12 13 12 8 10 11 11 10 10 9 9 10 10 8 7 5 4 5 6 6 6 5 5 5 6 6 4 5 5 4
3 5 2 2 1 1 1 2 2 4 7 9 12 14 14 13 13 12 9 8 10 11 9 8 8 11 11 10 7 7 7 9 6 6 6 5 5 5 6 6 6 5 5 6 6 5 4 5 3
4 2 3 2 3 0 2 3 4 2 7 12 11 11 12 14 13 11 10 9 9 10 9 9 8 9 8 8 8 8 7 7 7 5 6 5 6 6 5 6 6 6 5 5 5 5 5 6 5
3 3 2 3 2 2 1 3 4 5 8 11 12 13 11 11 11 10 10 9 9 9 9 10 9 9 7 6 8 8 6 6 4 4 5 6 6 5 5 5 6 5 5 5 5 5 5 5 5
Wind_Direction
316 332 100 43 71 72 261 261 235 238 61 355 30 131 131 37 137 196 135 131 131 137 144 142 147 155 160 152 144 143 131 128 119 113 111 109 108 113 107 107 108 104 100 94 88 79 70 61 53
308 312 40 69 113 150 262 248 233 224 146 124 99 95 56 89 78 119 121 142 133 136 138 138 148 152 148 150 146 147 135 135 126 124 121 120 119 114 118 115 107 103 96 92 84 75 64 53 43
301 248 91 145 167 193 222 239 222 248 159 183 101 59 117 130 104 139 138 140 130 130 134 134 129 137 137 140 144 143 139 129 126 123 123 123 120 131 114 110 114 98 97 92 75 60 48 36 29
353 358 51 134 229 240 212 298 236 178 133 64 109 78 66 214 148 143 140 141 127 129 125 135 123 128 126 120 121 121 121 120 126 128 129 131 133 124 126 109 105 96 84 73 55 43 32 22 15
25 66 203 219 251 245 246 250 82 227 148 155 128 149 84 25 124 134 139 139 131 133 132 136 127 126 124 122 122 124 124 123 126 128 130 130 132 133 127 117 102 92 76 57 41 24 7 357 352
324 127 162 226 251 302 275 247 121 254 257 161 97 103 174 117 136 140 135 135 134 136 134 135 123 122 125 124 123 125 129 132 134 135 136 138 135 132 126 115 102 83 56 24 7 350 338 333 330
228 186 213 229 258 285 236 20 167 315 224 240 147 95 118 151 137 133 131 130 130 130 124 118 125 123 118 121 125 128 129 129 133 139 142 141 142 143 134 125 115 96 7 327 321 318 319 320 320
178 37 237 211 244 262 234 239 159 70 264 102 174 149 173 187 138 128 128 128 130 133 135 129 128 125 122 123 123 124 124 128 137 141 146 156 160 155 148 160 204 226 251 289 298 298 305 313 316
79 229 227 217 241 248 249 219 230 17 123 312 299 153 158 147 137 132 131 127 134 141 145 137 137 135 131 121 132 131 142 152 154 159 165 165 172 193 216 222 232 257 262 266 273 288 303 310 312
184 225 233 241 238 302 276 275 171 157 154 310 274 88 142 143 148 147 152 150 152 155 159 155 154 153 146 141 152 155 156 161 164 168 172 197 220 227 216 223 243 265 277 300 311 302 303 299 302
183 232 236 251 252 292 287 251 262 218 206 218 182 146 154 153 156 153 154 153 158 160 163 169 165 160 158 149 166 171 160 167 180 184 187 207 187 206 217 221 251 266 287 280 310 338 27 17 6
230 215 220 227 234 256 263 275 248 206 228 180 180 157 159 161 166 161 158 156 160 161 171 176 171 166 175 151 173 175 161 171 183 192 187 157 163 128 219 267 241 252 44 69 27 33 26 28 19
222 233 214 225 214 249 262 276 243 257 270 152 152 160 166 159 163 160 154 146 152 164 173 174 164 175 170 165 167 177 172 176 190 179 191 146 139 155 86 64 64 52 51 47 41 48 41 32 22
218 227 233 224 221 243 246 260 221 243 111 153 160 169 170 162 161 155 159 159 161 167 171 165 161 167 171 166 162 173 160 170 172 198 211 166 127 111 77 64 46 52 52 53 57 57 49 32 16
199 232 253 233 217 218 236 263 226 219 156 162 174 167 170 157 159 170 170 167 168 169 163 163 166 161 167 152 154 160 172 168 154 114 76 67 72 79 80 72 64 55 37 61 47 38 37 29 6
130 128 234 235 205 207 164 242 222 179 164 172 175 174 171 166 171 169 174 173 171 163 172 165 170 160 160 137 143 155 131 108 93 82 71 65 68 74 74 78 66 44 42 45 56 36 41 16 9
196 192 199 253 226 218 212 225 216 167 185 179 176 184 173 168 169 173 173 176 179 178 178 185 166 167 160 140 107 101 98 82 77 70 66 62 64 69 78 67 53 47 47 37 37 38 38 15 0
169 188 219 231 229 210 207 246 221 180 179 187 177 181 177 178 176 175 173 175 176 178 178 180 168 169 149 116 111 97 84 72 69 68 66 61 58 64 75 67 57 44 52 36 40 65 45 23 339
159 213 243 247 281 204 199 223 246 175 193 179 183 180 180 182 171 169 168 167 168 172 169 171 165 170 139 133 129 117 102 94 77 69 58 55 60 63 74 77 73 58 62 41 20 60 47 21 356
168 225 249 288 246 205 206 219 232 182 179 178 183 177 175 162 160 164 165 166 166 170 173 167 170 166 152 152 125 115 117 93 90 80 66 63 65 65 80 76 66 61 64 42 29 26 44 39 8
171 171 219 262 320 221 205 206 231 216 197 194 194 189 175 165 163 162 165 167 159 167 168 168 171 173 160 124 109 100 100 100 89 73 70 52 65 64 69 70 73 71 75 73 54 39 60 81 20
182 178 215 270 251 235 189 210 218 217 212 176 183 183 188 179 164 160 163 170 167 165 164 159 167 151 136 141 134 148 144 136 113 108 100 76 63 66 66 73 73 68 60 62 56 38 39 66 46
187 166 224 335 262 248 179 151 192 210 222 205 184 185 184 189 162 155 138 123 114 120 112 103 105 117 135 138 142 130 111 108 114 117 107 94 76 66 67 68 71 71 65 66 62 52 53 49 70
133 103 330 270 167 230 197 145 187 190 202 211 188 184 175 171 134 122 117 115 106 98 97 95 108 97 117 117 123 126 131 134 132 132 117 109 104 91 79 78 80 88 83 76 73 66 68 68 70
100 81 213 237 210 188 245 113 279 201 192 207 191 177 164 154 144 132 136 129 121 113 107 105 108 91 97 113 114 127 131 134 134 135 141 145 117 94 96 92 83 77 84 87 88 83 70 64 76
125 160 141 292 357 99 131 187 122 11 158 212 184 163 148 146 149 141 143 131 117 102 94 99 107 93 108 103 105 112 114 119 122 135 131 130 122 121 110 94 83 82 95 91 91 90 91 87 82
179 215 160 195 219 102 147 265 315 41 81 132 140 145 144 139 134 134 128 131 127 118 115 109 115 103 99 109 121 123 124 124 124 118 113 120 104 107 97 91 103 98 90 89 90 91 92 89 90
204 142 130 15 19 18 193 93 55 140 131 114 125 132 126 121 118 117 120 122 119 112 111 108 118 121 122 107 99 99 102 110 110 101 99 99 100 105 120 119 108 103 95 95 98 96 101 98 95
38 126 44 164 114 241 133 71 223 265 161 136 124 121 128 130 125 123 121 116 116 112 125 113 105 113 108 110 116 119 97 81 88 115 135 137 120 133 127 120 115 107 104 105 99 105 106 101 100
36 318 283 118 318 338 336 75 328 224 138 136 125 124 122 118 121 127 130 128 132 127 119 121 118 109 105 111 128 114 122 126 141 142 121 131 125 117 119 121 109 112 118 125 130 127 128 137 134